ARIANE 5 DEB (SYLDA), 42694

Orbit data source: Space-Track

ARIANE 5 DEB (SYLDA), 42694 is space debris in HEO originally from a launch on Thu, 04 May 2017 UTC launched from the French Guiana (FRGUI). Debris objects in space refer to the collection of defunct objects orbiting the Earth. Examples of debris include non-operational satellites, rocket bodies, and fragments generated from explosions, collisions, or faulty payload assembly.

Loading next visibility...
Identifier
42694, 2017-023D
Orbit
HEO
Last TLE update
22 hours ago
Origin
Manufacturer
ADS/Bremen
Mission
Spacecraft
Bus & Motor
SYLDA 5, Unknown motor
Mass
440 kg wet, 440 kg dry
Launch date (UTC)
2017-05-04 (8 years ago)
Launch vehicle
Unknown
Launch site
French Guiana (FRGUI)
Object type
Payload
Rocket body
Debris
Shape & HBR
Cyl, 5.5 m
Radar Cross Section
27.391 m², Large (>1 m²)

Expand to show TLE details & history

TLE from 22 hours ago
0 ARIANE 5 DEB (SYLDA)
1 42694U 17023D   25188.63426406  .00000221  00000-0  37589-3 0  9993
2 42694   3.7017 156.2594 5516173 245.4889  48.5436  4.56101670100455
Epoch: 2025-07-07T15:13Z
TLE epoch observation values (Epoch: 2025-07-07T15:13:20.414Z)
Latitude
-0°
Longitude
1.88158°
Altitude
7,441.401 km
Speed
5.633 km/s
True Right ascension
10h 24m 13s
True Declination
0° 00' 00"
Sunlit
Object was in daylight at epoch
Visualization orbit readout
Latitude
2.50099°
Longitude
43.47308°
Altitude
14,993.958 km
Speed
3.369 km/s
Apparent Right ascension
13h 12m 13s
Apparent Declination
-6° 49' 20"
Sunlit
Object is in daylight
Visualization observer readout
Local Sidereal Time
01:19:21
Azimuth
3.236° NNE
Elevation
-56.867°
Doppler factor
1
Orbital elements
Apogee altitude
17,460.668 km
Perigee altitude
510.744 km
Semi-major axis
15,363.843 km
Eccentricity
0.55162
Inclination
3.7017°
RAAN
156.2594°
Arg. of periapsis
245.4889°
True anomaly
Unknown
Mean anomaly
48.5436°
Eccentric anomaly
Unknown
Mean motion
1.13971 °/min
Orbital period
315.87 mins
BSTAR
0.00037589
Loading maneuver chart data...
Loading SW <> Apogee altitude chart data...
Loading historical data...
Loading historical data...
Loading historical data...
Loading historical data...
Loading historical data...
Loading historical data...
Loading historical data...
Other satellites on launch #23 in the year 2017 (2017-05-04 UTC)

ARIANE 5 DEB (SYLDA) Visibility forecast

Observer location: undefined°, undefined°

Span
Click to sort rows by Start time (UTC) header in descending order
Start Az.
Max El. time (UTC)
Max El. Az.
Max El.
End time (UTC)
End Az.
219 mins2025-07-08 22:34:50.928Z211.26° SW2025-07-08 23:34:50.928Z152.67° SSE29.412°2025-07-09 02:13:50.928Z114.508° SE
182 mins2025-07-09 05:10:50.928Z249.299° W2025-07-09 07:43:50.928Z211.033° SW25.06°2025-07-09 08:12:50.928Z159.052° S
|